Temperature
11 11 11 11 12 12 12 12 13 13 13 14 14 14 14 14 14 14 15 15 15 15 15 15 15 16 16 16 16 16 16 17 17 17 17 17 17 17
11 11 11 11 11 11 11 12 12 12 12 13 13 14 14 14 14 14 14 14 14 15 15 15 15 15 16 16 16 16 16 16 16 16 17 17 17 17
11 11 11 11 11 11 11 11 11 12 12 12 12 13 13 13 13 14 14 14 14 15 15 15 15 15 15 16 16 16 16 16 16 16 16 16 17 17
10 10 10 10 10 10 10 10 11 11 11 11 12 12 12 13 13 13 13 14 14 14 14 15 15 15 15 15 15 15 16 16 16 16 16 16 16 17
10 10 10 10 10 10 10 10 10 10 11 11 11 12 12 12 13 13 13 13 13 14 14 14 14 14 15 15 15 15 15 16 16 16 16 16 16 16
10 10 10 10 10 10 10 10 10 10 10 10 11 11 12 12 12 13 13 13 13 13 13 14 14 14 14 15 15 15 15 15 15 16 16 16 16 16
10 10 10 10 10 10 10 10 10 10 10 10 10 11 11 12 12 12 13 13 13 13 13 13 14 14 14 14 14 15 15 15 15 15 16 16 16 16
10 10 10 10 10 10 10 10 10 10 10 9 9 10 10 11 11 11 12 12 12 13 13 13 13 13 14 14 14 14 14 15 15 15 15 16 16 16
10 10 9 9 10 10 10 9 9 9 9 9 9 10 10 10 10 11 11 11 11 12 12 12 13 13 13 13 14 14 14 14 14 15 15 15 15 15
10 10 10 10 10 10 9 9 9 9 9 9 9 10 10 10 10 10 10 10 11 11 12 12 12 13 13 13 13 13 13 14 14 14 15 15 15 15
10 10 9 9 10 9 9 9 9 9 9 9 9 9 9 9 9 9 9 9 10 11 11 12 12 12 12 13 13 13 13 13 14 14 14 14 15 15
10 10 10 10 10 9 9 9 9 9 9 8 9 9 9 9 9 9 9 9 9 10 11 11 12 12 12 12 13 13 13 13 13 14 14 14 14 14
9 9 9 9 10 9 9 9 9 9 8 8 8 8 9 9 9 9 9 9 9 10 11 11 11 11 12 12 12 12 12 13 13 13 13 14 14 14
9 9 9 9 9 9 9 9 8 8 8 8 8 8 8 9 9 9 9 10 10 10 11 11 11 11 11 12 12 12 12 12 12 13 13 13 13 13
9 9 9 9 9 8 8 8 8 8 8 8 7 8 8 8 9 9 10 10 10 10 10 10 10 11 11 11 12 12 12 12 12 12 13 13 13 13
9 9 9 8 8 8 8 8 8 8 8 7 7 8 8 8 9 9 9 10 10 10 10 10 10 11 11 11 11 12 12 12 12 12 12 12 12 13
8 8 8 8 8 8 8 8 8 8 8 8 8 8 8 8 8 9 9 9 9 10 10 10 10 10 11 11 11 11 11 12 12 12 12 12 12 12
9 8 8 8 8 8 8 8 8 8 8 8 8 8 8 8 8 9 9 9 9 10 10 10 10 10 10 10 10 11 11 11 11 12 12 12 12 12
9 8 8 8 8 8 8 8 9 9 9 8 8 8 8 8 8 9 9 9 9 9 10 10 10 10 10 10 10 10 11 11 11 11 11 12 12 12
9 9 8 8 8 8 8 9 9 9 9 9 9 9 8 8 8 8 9 9 9 9 9 10 10 10 10 10 10 10 10 11 11 11 11 11 11 11
8 8 8 8 8 9 9 9 9 9 9 9 9 9 8 8 8 8 9 9 9 9 9 9 10 10 10 10 10 10 10 10 11 11 11 11 11 11
9 9 9 9 9 9 9 9 9 9 9 9 8 8 8 8 8 8 8 8 9 9 9 9 10 10 9 9 10 10 10 10 10 10 10 11 11 11
9 9 9 9 9 9 9 8 8 8 8 8 8 8 8 8 8 8 8 8 9 9 9 9 9 9 9 9 9 10 10 10 9 9 10 10 10 11
Wind_Speed
6 6 5 5 5 5 5 5 6 7 7 6 3 2 2 5 6 7 8 11 14 16 18 20 22 24 26 29 32 33 33 33 32 31 31 30 30 29
6 7 6 6 5 5 5 6 5 6 7 6 5 5 4 5 7 7 8 11 14 17 19 20 21 23 25 27 29 31 32 33 32 32 32 31 31 30
8 8 8 7 6 6 6 6 6 6 7 7 6 5 5 6 4 7 8 10 11 16 19 20 20 22 24 26 28 30 31 32 32 31 31 31 31 30
8 8 8 8 8 6 6 7 7 7 7 8 7 7 8 7 7 7 6 9 9 13 18 19 20 21 22 24 26 28 30 31 31 31 31 31 31 30
8 8 8 8 8 7 7 7 7 8 6 7 8 6 6 6 6 7 7 6 7 9 13 16 18 20 20 22 23 25 27 29 31 32 32 31 31 30
8 8 9 9 9 8 8 8 8 7 7 8 8 7 6 7 6 6 6 5 6 6 6 9 12 16 18 20 22 23 25 28 30 31 32 31 31 30
7 8 10 11 11 9 9 7 6 6 6 7 7 7 6 5 5 5 5 5 5 5 4 4 6 7 10 16 19 21 22 25 28 30 31 31 30 30
9 9 10 11 13 15 16 14 11 9 8 7 8 8 8 7 6 6 5 4 4 3 4 5 5 6 6 8 14 18 20 22 25 27 28 29 29 29
9 9 12 13 10 8 10 14 15 17 16 11 10 10 10 8 7 7 7 7 6 5 3 5 4 5 4 6 12 16 18 20 22 24 26 26 27 27
11 11 11 11 13 10 8 9 9 10 12 13 12 13 12 9 7 7 7 8 7 6 5 5 3 3 2 2 7 12 14 17 19 21 23 24 24 25
12 12 12 11 13 12 9 9 9 9 12 15 15 15 15 14 9 6 7 7 8 6 4 4 2 2 1 1 2 7 11 14 16 18 20 22 23 22
10 11 14 14 14 12 9 9 9 9 9 10 9 11 12 13 15 11 9 9 8 6 5 4 3 3 2 1 1 3 5 8 13 16 19 21 23 16
9 8 6 7 10 12 11 9 10 7 7 8 9 9 9 9 10 11 11 11 10 8 4 3 3 4 3 2 1 2 3 3 5 8 16 22 24 16
9 8 5 3 5 9 9 10 11 8 8 9 10 9 9 8 9 10 11 12 10 11 7 5 4 5 4 3 2 2 2 4 5 5 7 16 17 16
10 11 9 9 8 9 14 15 11 9 9 10 11 10 8 8 8 7 8 10 11 10 10 8 7 6 5 4 4 4 3 3 5 6 7 8 7 10
11 12 14 16 14 14 12 11 10 11 11 11 9 9 7 7 7 7 7 7 7 7 8 9 8 8 6 5 5 6 5 5 6 7 7 6 7 10
4 6 9 9 9 9 10 10 10 10 12 11 10 9 8 8 7 7 6 6 7 7 7 6 6 6 6 5 5 6 6 5 7 8 8 7 6 8
4 9 11 11 11 10 9 9 9 10 10 10 10 9 9 8 8 7 7 7 7 7 7 7 6 5 3 2 5 7 7 6 7 8 7 7 8 7
6 10 11 11 10 9 9 8 9 9 9 9 10 10 9 8 8 7 7 7 8 8 7 7 8 9 9 7 5 7 8 8 9 7 7 5 7 9
10 11 11 11 10 9 9 8 8 7 7 8 9 9 9 8 8 8 7 8 8 8 7 8 9 10 10 8 6 5 9 10 9 9 7 4 5 7
10 10 10 10 9 8 8 8 8 7 8 7 8 9 8 8 9 8 8 10 10 8 9 9 10 12 6 6 6 5 6 8 10 8 9 7 6 6
10 9 8 8 7 7 7 7 7 8 8 8 8 8 8 9 10 10 9 8 9 9 9 8 8 9 8 9 8 8 7 6 5 9 8 5 7 9
8 8 7 7 7 7 6 7 8 8 8 8 8 8 8 9 9 8 8 9 8 9 8 8 8 9 9 9 8 7 10 10 7 6 4 10 3 4
Wind_Direction
275 279 274 281 285 283 285 277 280 289 289 295 298 272 232 224 212 232 249 252 242 237 234 233 229 224 220 217 214 213 213 212 213 213 213 213 214 217
263 263 270 273 282 293 293 289 279 275 282 288 288 277 273 272 238 236 251 257 248 241 236 232 230 226 221 218 215 214 214 213 213 213 214 214 214 216
267 266 261 262 267 277 285 287 286 283 283 286 288 293 285 276 261 249 260 250 247 241 235 230 227 225 223 220 218 216 216 215 214 215 215 215 216 217
267 266 266 266 256 258 265 274 279 281 280 282 284 282 277 274 261 248 252 256 246 243 233 228 225 223 221 219 219 218 217 217 216 216 216 216 216 217
267 266 264 262 262 258 261 267 274 280 285 285 285 277 273 271 270 262 253 254 249 246 231 226 225 223 220 218 218 218 219 219 218 217 217 216 216 216
267 267 266 262 259 256 258 256 262 270 275 277 277 276 269 266 260 259 259 250 245 240 228 224 224 223 222 218 217 218 219 220 218 217 215 214 214 216
278 274 269 264 259 252 257 258 269 275 280 282 281 283 277 276 274 272 266 263 249 225 220 219 217 221 220 222 220 219 218 218 217 215 213 211 212 214
280 277 276 269 258 242 238 242 245 253 261 269 279 284 293 307 317 316 307 297 284 242 220 232 218 222 218 214 214 214 215 215 214 211 209 207 208 209
269 272 275 275 281 262 243 240 243 245 242 248 261 268 278 288 308 314 309 302 288 288 263 250 231 231 222 214 206 207 211 211 210 207 204 203 203 203
261 261 261 265 271 271 269 259 249 247 241 238 241 250 257 263 269 279 288 289 279 262 236 246 232 225 208 194 202 204 207 206 204 201 197 195 195 195
260 259 256 255 254 249 249 255 259 261 261 253 235 236 241 246 247 263 273 276 277 271 232 213 219 205 201 211 197 201 202 202 199 195 191 186 184 182
263 258 255 252 249 234 232 244 254 260 270 280 271 255 250 249 239 233 242 253 262 267 233 199 196 183 201 201 195 186 189 196 193 189 184 178 170 167
270 274 276 269 240 227 227 242 252 264 278 279 276 267 254 246 240 229 223 228 240 246 234 202 207 197 189 181 196 186 175 167 174 181 180 173 170 167
264 273 283 287 241 232 230 242 250 256 263 265 264 262 258 251 242 234 223 219 222 232 232 220 220 206 186 178 186 174 163 159 159 161 165 167 169 168
256 266 274 258 247 244 242 241 243 245 250 253 256 256 254 255 252 246 237 226 223 226 225 217 219 212 206 193 171 168 161 163 159 155 159 164 162 156
253 264 262 253 244 249 254 242 235 239 241 247 251 255 254 255 254 248 247 230 225 226 218 211 208 202 208 200 178 175 169 166 164 160 152 152 156 160
297 275 271 266 255 244 241 240 234 230 234 240 249 255 255 252 250 247 243 238 227 224 215 203 202 198 198 193 187 182 169 160 163 158 155 154 159 163
260 265 266 265 264 261 253 243 237 236 235 235 238 244 248 249 248 239 234 232 231 228 216 197 184 180 182 221 196 178 173 165 163 163 158 155 163 166
239 256 258 260 261 261 259 252 246 240 231 231 235 237 239 244 245 242 233 231 229 229 219 196 190 193 200 205 198 188 172 164 163 166 169 158 164 168
239 248 253 256 256 257 259 257 254 250 237 231 234 235 233 236 240 239 233 232 230 229 221 202 197 200 204 196 175 178 178 168 169 169 162 131 109 112
253 248 249 255 259 261 260 254 252 251 242 234 235 236 233 232 236 236 233 233 232 229 221 212 204 195 185 164 161 159 165 173 170 165 158 147 140 146
258 263 263 260 259 259 258 256 253 251 248 241 238 236 231 229 232 233 231 230 229 226 223 211 189 184 189 191 184 166 155 145 119 119 114 116 160 169
260 267 270 271 267 263 258 255 254 254 250 246 243 239 233 229 228 230 230 230 229 225 217 204 191 189 194 192 183 168 161 158 151 137 76 25 84 148
Height
1519 1519 1518 1518 1518 1518 1518 1518 1518 1515 1514 1514 1513 1512 1511 1510 1509 1509 1508 1508 1507 1508 1510 1513 1516 1520 1525 1530 1535 1540 1545 1550 1555 1559 1563 1568 1572 1576
1515 1514 1514 1514 1514 1513 1513 1513 1513 1512 1510 1509 1509 1508 1507 1507 1506 1504 1503 1503 1502 1502 1503 1505 1508 1511 1516 1520 1525 1531 1536 1542 1547 1551 1556 1560 1565 1569
1511 1510 1510 1509 1509 1509 1508 1508 1508 1508 1506 1504 1504 1504 1503 1502 1501 1500 1498 1498 1496 1496 1497 1498 1500 1503 1507 1511 1516 1521 1527 1532 1538 1543 1548 1553 1557 1562
1506 1505 1505 1504 1504 1504 1503 1503 1503 1503 1502 1500 1499 1499 1498 1497 1496 1495 1493 1492 1491 1491 1491 1492 1493 1495 1498 1502 1507 1512 1517 1522 1528 1534 1539 1544 1549 1554
1501 1500 1499 1499 1499 1498 1498 1498 1497 1497 1497 1495 1494 1494 1493 1492 1491 1490 1489 1488 1487 1486 1485 1486 1487 1489 1491 1494 1498 1502 1507 1513 1518 1524 1529 1535 1540 1546
1495 1495 1494 1494 1493 1493 1493 1492 1492 1492 1491 1490 1489 1488 1488 1487 1486 1485 1484 1483 1482 1481 1481 1481 1481 1483 1484 1487 1490 1494 1498 1502 1508 1514 1520 1526 1532 1537
1490 1489 1488 1488 1488 1488 1488 1487 1487 1486 1486 1485 1484 1483 1483 1482 1482 1480 1479 1478 1477 1477 1476 1476 1476 1477 1478 1480 1482 1485 1489 1493 1498 1504 1510 1516 1522 1529
1483 1482 1482 1482 1482 1481 1481 1481 1481 1481 1480 1479 1479 1478 1477 1477 1476 1475 1475 1473 1472 1473 1472 1471 1472 1472 1472 1474 1476 1478 1481 1485 1489 1494 1500 1507 1513 1520
1477 1476 1476 1476 1477 1476 1475 1475 1474 1474 1474 1474 1472 1472 1472 1472 1472 1470 1470 1469 1468 1468 1468 1466 1467 1467 1468 1468 1470 1472 1474 1477 1480 1485 1491 1498 1505 1512
1471 1470 1469 1469 1470 1470 1469 1468 1468 1467 1467 1467 1466 1465 1466 1466 1466 1466 1465 1464 1463 1463 1464 1462 1462 1462 1463 1463 1465 1466 1468 1471 1474 1478 1483 1490 1497 1504
1465 1464 1464 1463 1463 1463 1463 1462 1461 1461 1461 1460 1460 1459 1459 1459 1459 1460 1459 1460 1458 1458 1459 1458 1457 1458 1458 1459 1460 1461 1463 1465 1469 1472 1477 1483 1490 1497
1460 1459 1459 1458 1457 1457 1456 1456 1455 1454 1454 1453 1453 1452 1452 1452 1452 1452 1453 1453 1453 1453 1453 1454 1454 1454 1454 1454 1455 1457 1458 1460 1464 1467 1472 1478 1484 1490
1455 1454 1453 1452 1451 1451 1450 1450 1449 1448 1447 1446 1445 1445 1444 1444 1444 1445 1445 1446 1447 1447 1449 1450 1450 1451 1451 1451 1452 1453 1455 1457 1460 1463 1468 1473 1479 1485
1448 1447 1447 1446 1445 1444 1443 1443 1442 1442 1440 1439 1438 1437 1437 1438 1438 1438 1439 1439 1440 1441 1443 1445 1446 1447 1447 1447 1448 1450 1451 1454 1457 1460 1464 1469 1475 1481
1442 1441 1440 1439 1438 1437 1436 1435 1435 1434 1432 1432 1431 1431 1431 1431 1432 1433 1433 1434 1434 1435 1437 1439 1441 1442 1443 1444 1445 1446 1448 1450 1454 1457 1460 1465 1470 1476
1436 1434 1433 1432 1431 1429 1428 1427 1426 1426 1425 1425 1424 1425 1425 1425 1426 1426 1427 1428 1428 1429 1431 1433 1435 1437 1438 1440 1441 1443 1445 1447 1450 1454 1458 1462 1468 1473
1429 1427 1426 1425 1423 1422 1420 1420 1419 1419 1418 1417 1418 1418 1419 1419 1419 1420 1421 1422 1423 1424 1425 1427 1429 1432 1434 1435 1437 1438 1441 1444 1447 1451 1455 1460 1465 1470
1422 1420 1418 1417 1416 1415 1414 1413 1413 1412 1412 1412 1412 1412 1413 1413 1413 1414 1415 1416 1417 1418 1420 1422 1424 1427 1429 1431 1433 1434 1437 1440 1444 1448 1452 1457 1462 1467
1414 1412 1411 1410 1408 1408 1407 1406 1406 1405 1405 1405 1405 1405 1406 1406 1407 1408 1409 1410 1411 1412 1414 1416 1418 1420 1423 1425 1427 1430 1433 1436 1440 1445 1450 1454 1459 1464
1407 1405 1404 1403 1402 1401 1400 1399 1399 1398 1398 1398 1398 1399 1399 1400 1400 1401 1402 1403 1405 1406 1408 1410 1412 1414 1417 1420 1423 1426 1429 1432 1436 1441 1446 1451 1457 1462
1401 1399 1398 1397 1396 1394 1393 1392 1392 1392 1392 1392 1392 1392 1392 1393 1393 1394 1396 1397 1398 1400 1401 1403 1405 1410 1413 1417 1420 1421 1425 1429 1433 1437 1442 1447 1452 1457
1394 1393 1392 1390 1389 1387 1386 1386 1385 1385 1385 1385 1384 1385 1385 1385 1386 1387 1389 1390 1391 1393 1395 1398 1401 1404 1407 1410 1413 1417 1420 1425 1430 1435 1439 1443 1446 1451
1387 1386 1385 1383 1382 1381 1380 1379 1378 1378 1378 1378 1378 1378 1378 1378 1379 1380 1382 1383 1385 1387 1389 1392 1395 1398 1401 1405 1409 1413 1416 1420 1425 1430 1435 1439 1444 1450